[[{"header":{"parameterUnit":"m.s-1","parameterCategory":1,"la1":30.2991,"la2":30.254,"lo1":-89.0895,"lo2":-89.0444,"dy":0.0017,"dx":0.0017,"nx":28,"ny":28,"refTime":"2023-11-22T03:00:00:Z","depth":0,"parameterNumber":2,"parameterNumberName":"U-component_of_WINDS"},"data":[0,0,0,0,0,0,0,0,0,0,0,0,0,0,0,0,0,0,0,0,0,0,0,0,0,0,0,0,0,0,0,0,0,0,0,0,0,0,0,0,0,0,0,0,0,0,0,0,0,0,0,0,0,0,0,0,0,0,-1.8559,-1.8559,0,-1.8568,-1.8568,-1.8568,-1.8496,-1.8494,-1.8492,-1.849,-1.8501,-1.8503,-1.8505,0,0,0,0,0,0,0,0,0,0,0,0,0,-1.8483,-1.8485,-1.8559,-1.8559,-1.8559,-1.8567,-1.8568,-1.8568,-1.8496,-1.8494,-1.8492,-1.8489,-1.8501,-1.8503,-1.8506,0,0,0,0,0,0,0,0,0,0,0,0,0,-1.8506,-1.8485,-1.8559,-1.8524,-1.8521,-1.8567,-1.8568,-1.8568,-1.8497,-1.8494,-1.8491,-1.8488,-1.85,-1.8503,-1.8506,-1.8586,0,0,-1.8516,-1.8517,0,0,0,0,0,0,0,0,-1.8505,-1.8509,-1.8529,-1.8527,-1.8524,-1.8528,-1.8545,-1.8574,-1.8498,-1.8506,-1.849,-1.8487,-1.8513,-1.8515,-1.8523,-1.8587,-1.8587,-1.8516,-1.8518,-1.852,-1.8521,0,0,0,0,0,0,0,-1.8504,-1.8508,-1.8562,-1.853,-1.8526,-1.8509,-1.8509,-1.855,-1.8526,-1.8505,-1.85,-1.8502,-1.851,-1.852,-1.8523,-1.8587,-1.8516,-1.8519,-1.8521,-1.8522,-1.8718,-1.8721,0,0,0,0,0,0,-1.8506,-1.8508,-1.8562,-1.8563,-1.8507,-1.8513,-1.8513,-1.8529,-1.8526,-1.8522,-1.8505,-1.8499,-1.8516,-1.8519,-1.8523,-1.8617,-1.852,-1.8523,-1.8524,-1.8715,-1.8719,-1.8722,0,0,0,0,0,0,-1.8505,-1.8512,-1.8562,-1.8534,-1.8539,-1.8518,-1.8537,-1.8531,-1.854,-1.8525,-1.8521,-1.8519,-1.8514,-1.8518,-1.8571,-1.8616,-1.8524,-1.8527,-1.8711,-1.8716,-1.8721,-1.8806,0,0,0,0,0,0,-1.8503,-1.8512,-1.8541,-1.8535,-1.854,-1.8609,-1.8539,-1.8533,-1.8546,-1.8538,-1.8537,-1.8534,-1.8512,-1.8566,-1.8574,-1.8619,-1.853,-1.8707,-1.8713,-1.8719,-1.8799,-1.8813,-1.8825,0,0,0,0,0,-1.8501,-1.8565,-1.8543,-1.855,-1.8577,-1.8612,-1.8615,-1.8588,-1.855,-1.858,-1.857,-1.8534,-1.861,-1.8572,-1.8581,-1.8627,-1.8704,-1.8711,-1.8719,-1.8793,-1.881,-1.8824,0,0,0,0,0,0,-1.8578,-1.8564,-1.8539,-1.8604,-1.861,-1.86,-1.8637,-1.8607,-1.8624,-1.8616,-1.8582,-1.8583,-1.8641,-1.8639,-1.8598,-1.8705,-1.865,-1.866,-1.8704,-1.872,-1.8733,-1.8733,-1.8532,0,0,0,0,0,-1.8603,-1.8632,-1.8618,-1.8676,-1.868,-1.8658,-1.8672,-1.8651,-1.8656,-1.8658,-1.8652,-1.8659,-1.8685,-1.8702,-1.8725,-1.8798,-1.8797,-1.8834,-1.8847,-1.8858,-1.8866,-1.8906,-1.8922,-1.8746,-1.8746,-1.8746,0,0,-1.8654,-1.865,-1.867,-1.8692,-1.8694,-1.8725,-1.8661,-1.8697,-1.872,-1.8664,-1.8713,-1.8709,-1.8715,-1.8779,-1.8806,-1.8779,-1.8915,-1.8867,-1.8876,-1.8879,-1.8915,-1.8932,-1.8947,-1.8751,-1.875,-1.875,0,0,-1.8764,-1.8763,-1.8811,-1.8815,-1.8819,-1.8804,-1.8816,-1.8811,-1.8806,-1.8854,-1.8813,-1.8841,-1.8885,-1.8891,-1.89,-1.9012,-1.898,-1.9021,-1.9089,-1.9128,-1.9142,-1.9154,-1.9195,-1.921,-1.9029,-1.9029,-1.903,0,-1.8827,-1.8872,-1.8841,-1.8879,-1.8891,-1.884,-1.889,-1.8895,-1.8906,-1.8916,-1.8884,-1.8939,-1.8939,-1.9004,-1.9032,-1.904,-1.9053,-1.9021,-1.9142,-1.9154,-1.9165,-1.9204,-1.9219,-1.9034,-1.9034,-1.9033,-1.9033,0,-1.895,-1.8983,-1.9021,-1.9033,-1.9049,-1.9093,-1.9069,-1.9088,-1.9065,-1.9054,-1.9105,-1.9104,-1.9125,-1.9139,-1.9117,-1.9201,-1.9184,-1.9148,-1.9093,-1.9187,-1.9223,-1.9238,-1.9041,-1.904,-1.9038,-1.9037,0,0,-1.9109,-1.9103,-1.9118,-1.9123,-1.9124,-1.9148,-1.9191,-1.9211,-1.9229,-1.9239,-1.9274,-1.9313,-1.928,-1.929,-1.9269,-1.9303,-1.9393,-1.9263,-1.9262,-1.9288,-1.9486,-1.9514,-1.9531,-1.9371,-1.9374,-1.9376,-1.9486,0,-1.9217,-1.9288,-1.9261,-1.9334,-1.9364,-1.9317,-1.9354,-1.9359,-1.935,-1.9375,-1.9364,-1.9393,-1.9347,-1.9353,-1.9384,-1.9375,-1.9433,-1.9367,-1.9405,-1.9407,-1.9406,-1.955,-1.9579,-1.9683,-1.95,-1.9502,-1.9504,0,-1.9351,-1.9366,-1.9443,-1.9439,-1.945,-1.9484,-1.9501,-1.9525,-1.953,-1.9521,-1.9532,-1.9504,-1.9546,-1.949,-1.9549,-1.9505,-1.9518,-1.9517,-1.952,-1.9523,-1.9462,-1.9558,-1.9715,-1.9732,-1.9526,-1.9524,-1.9522,0,-1.9461,-1.95,-1.9551,-1.9556,-1.9553,-1.9578,-1.9578,-1.9579,-1.9594,-1.9609,-1.9618,-1.9638,-1.965,-1.9667,-1.9644,-1.9606,-1.9707,-1.9649,-1.9701,-1.9702,-1.9725,-1.9724,-1.9888,-1.9733,-1.9733,-1.9732,-1.9732,0,-1.9584,-1.9633,-1.96,-1.9631,-1.9685,-1.9654,-1.9708,-1.9703,-1.9705,-1.9735,-1.9696,-1.9726,-1.9694,-1.9721,-1.9704,-1.9755,-1.9761,-1.9755,-1.975,-1.9759,-1.976,-1.9769,-1.9761,-1.9736,-1.9735,-1.9735,-1.9734,0,-1.9715,-1.9695,-1.9748,-1.974,-1.9739,-1.9779,-1.9773,-1.9802,-1.979,-1.9829,-1.9837,-1.9818,-1.9848,-1.9827,-1.9857,-1.9845,-1.9913,-1.9898,-1.9911,-1.9908,-1.9961,-1.9957,-2.0137,-2.0159,-1.9989,-1.9991,-1.9992,0,-1.9796,-1.9832,-1.9828,-1.9845,-1.9848,-1.9876,-1.989,-1.9861,-1.9878,-1.9887,-1.9916,-1.9942,-1.9961,-2.0011,-2.0001,-2.0023,-2.0009,-2.007,-2.0012,-2.002,-2.0011,-2.0009,-2.0013,-2.0082,-2.0084,-2.0086,-2.0087,0,-1.9941,-1.9929,-1.995,-1.9969,-1.9988,-2.0001,-2.0011,-2.0028,-1.9999,-2.002,-2.0049,-2.0064,-2.0095,-2.0122,-2.0141,-2.0141,-2.011,-2.0106,-2.0119,-2.0129,-2.0136,-2.0134,-1.9945,-2.0102,-2.01,-2.0099,-2.0098,-2.0098,-2.0049,-2.008,-2.0082,-2.0108,-2.0113,-2.0123,-2.0151,-2.0142,-2.0166,-2.0188,-2.0169,-2.0205,-2.021,-2.0232,-2.0237,-2.0265,-2.024,-2.0259,-2.0264,-2.027,-2.0278,-2.0131,-2.0268,-2.0268,-2.0267,-2.0267,-2.0267,0,-2.0193,-2.0192,-2.0216,-2.0232,-2.0253,-2.022,-2.023,-2.025,-2.0282,-2.0289,-2.0309,-2.0343,-2.0369,-2.0361,-2.0384,-2.0409,-2.0395,-2.0416,-2.0414,-2.0415,-2.0298,-2.0285,-2.0427,-2.0427,-2.0427,-2.0427,-2.0426,-2.0426,-2.027,-2.032,-2.0309,-2.0362,-2.036,-2.0394,-2.0403,-2.0413,-2.0419,-2.0459,-2.048,-2.0474,-2.0475,-2.0499,-2.0522,-2.0518,-2.053,-2.0556,-2.0548,-2.0439,-2.0423,-2.0408,-2.0395,-2.0558,-2.0558,-2.0662,-2.0663,-2.0664]},{"header":{"parameterUnit":"m.s-1","parameterCategory":1,"la1":30.2991,"la2":30.254,"lo1":-89.0895,"lo2":-89.0444,"dy":0.0017,"dx":0.0017,"nx":28,"ny":28,"refTime":"2023-11-22T03:00:00:Z","depth":0,"parameterNumber":3,"parameterNumberName":"V-component_of_WINDS"},"data":[0,0,0,0,0,0,0,0,0,0,0,0,0,0,0,0,0,0,0,0,0,0,0,0,0,0,0,0,0,0,0,0,0,0,0,0,0,0,0,0,0,0,0,0,0,0,0,0,0,0,0,0,0,0,0,0,0,0,-0.7009,-0.7009,0,-0.7026,-0.7026,-0.7026,-0.7005,-0.7004,-0.7003,-0.7002,-0.7021,-0.7023,-0.7024,0,0,0,0,0,0,0,0,0,0,0,0,0,-0.6958,-0.6959,-0.7009,-0.7009,-0.7009,-0.7026,-0.7026,-0.7026,-0.7005,-0.7004,-0.7003,-0.7002,-0.7021,-0.7022,-0.7024,0,0,0,0,0,0,0,0,0,0,0,0,0,-0.6978,-0.6959,-0.7009,-0.7,-0.7,-0.7026,-0.7026,-0.7026,-0.7005,-0.7004,-0.7003,-0.7002,-0.702,-0.7022,-0.7024,-0.7059,0,0,-0.703,-0.7031,0,0,0,0,0,0,0,0,-0.6977,-0.698,-0.7001,-0.7001,-0.7,-0.7012,-0.7015,-0.7037,-0.7005,-0.7003,-0.7002,-0.7001,-0.7019,-0.7021,-0.7027,-0.706,-0.7061,-0.703,-0.7031,-0.7032,-0.7032,0,0,0,0,0,0,0,-0.6975,-0.6979,-0.7015,-0.7002,-0.7001,-0.6996,-0.6997,-0.7019,-0.7018,-0.7003,-0.7002,-0.7004,-0.7019,-0.7025,-0.7027,-0.7061,-0.703,-0.7032,-0.7033,-0.7033,-0.7123,-0.7125,0,0,0,0,0,0,-0.6975,-0.6978,-0.7015,-0.7016,-0.6985,-0.6998,-0.7,-0.7009,-0.7017,-0.7017,-0.7005,-0.7003,-0.7023,-0.7025,-0.7028,-0.7069,-0.7032,-0.7034,-0.7035,-0.7122,-0.7124,-0.7125,0,0,0,0,0,0,-0.6974,-0.6978,-0.7014,-0.6996,-0.7001,-0.7,-0.7011,-0.701,-0.7017,-0.7019,-0.7018,-0.7012,-0.7022,-0.7025,-0.7051,-0.707,-0.7034,-0.7036,-0.7121,-0.7123,-0.7124,-0.7153,0,0,0,0,0,0,-0.6973,-0.6978,-0.6992,-0.6997,-0.7002,-0.7037,-0.7012,-0.7011,-0.702,-0.7017,-0.7025,-0.7025,-0.7021,-0.7049,-0.7053,-0.7072,-0.7038,-0.7119,-0.7121,-0.7124,-0.715,-0.7155,-0.716,0,0,0,0,0,-0.6971,-0.6999,-0.6992,-0.6997,-0.7018,-0.7038,-0.7041,-0.7036,-0.7021,-0.7035,-0.7036,-0.7025,-0.7067,-0.7052,-0.7056,-0.7076,-0.7118,-0.7121,-0.7124,-0.7148,-0.7154,-0.716,0,0,0,0,0,0,-0.6997,-0.7,-0.6992,-0.7023,-0.7031,-0.7035,-0.7052,-0.7043,-0.7055,-0.7052,-0.7045,-0.7047,-0.7074,-0.7077,-0.7061,-0.711,-0.709,-0.7094,-0.7107,-0.7113,-0.7118,-0.7117,-0.7039,0,0,0,0,0,-0.7006,-0.7022,-0.7024,-0.7051,-0.7055,-0.7053,-0.7061,-0.7056,-0.7064,-0.7067,-0.707,-0.7078,-0.7093,-0.7103,-0.7117,-0.715,-0.7151,-0.7166,-0.717,-0.7174,-0.7178,-0.7196,-0.7202,-0.7134,-0.7134,-0.7134,0,0,-0.7026,-0.7029,-0.704,-0.7056,-0.7061,-0.7078,-0.7056,-0.7074,-0.7087,-0.707,-0.7095,-0.7097,-0.7105,-0.7135,-0.7149,-0.7139,-0.7197,-0.7178,-0.7181,-0.7183,-0.7199,-0.7206,-0.7212,-0.7136,-0.7136,-0.7136,0,0,-0.707,-0.7074,-0.7097,-0.7102,-0.711,-0.7108,-0.7113,-0.7119,-0.7119,-0.7144,-0.7131,-0.7146,-0.7172,-0.7178,-0.7185,-0.723,-0.7221,-0.7235,-0.726,-0.7278,-0.7283,-0.7288,-0.7304,-0.731,-0.7238,-0.7238,-0.7238,0,-0.7093,-0.7118,-0.711,-0.7129,-0.7137,-0.7121,-0.7145,-0.715,-0.7162,-0.7168,-0.7157,-0.7188,-0.7193,-0.7224,-0.7235,-0.724,-0.7247,-0.7234,-0.7283,-0.7287,-0.7292,-0.7307,-0.7313,-0.724,-0.724,-0.724,-0.724,0,-0.7146,-0.7163,-0.7181,-0.7192,-0.7201,-0.7223,-0.7218,-0.7229,-0.7222,-0.7222,-0.7246,-0.7251,-0.7265,-0.7272,-0.7267,-0.7302,-0.7296,-0.7284,-0.7264,-0.73,-0.7314,-0.732,-0.7243,-0.7242,-0.7241,-0.7241,0,0,-0.7208,-0.7214,-0.7221,-0.7225,-0.7232,-0.7245,-0.7266,-0.7279,-0.7288,-0.7296,-0.7313,-0.7335,-0.7323,-0.7331,-0.7326,-0.7341,-0.7376,-0.7327,-0.7327,-0.7336,-0.7416,-0.7425,-0.7432,-0.7369,-0.737,-0.7371,-0.7415,0,-0.7253,-0.7287,-0.728,-0.7315,-0.733,-0.7315,-0.7333,-0.7339,-0.7338,-0.7351,-0.7351,-0.7366,-0.735,-0.7354,-0.7368,-0.7369,-0.7392,-0.7365,-0.7385,-0.7386,-0.7384,-0.744,-0.745,-0.7491,-0.7421,-0.7421,-0.7422,0,-0.7309,-0.7319,-0.7355,-0.7358,-0.7364,-0.738,-0.7392,-0.7404,-0.7411,-0.7409,-0.7417,-0.7409,-0.7429,-0.7408,-0.7435,-0.7417,-0.7425,-0.7426,-0.7428,-0.743,-0.7407,-0.7444,-0.7504,-0.7511,-0.7431,-0.743,-0.743,0,-0.7351,-0.7373,-0.7397,-0.7402,-0.7406,-0.7418,-0.7421,-0.7426,-0.7434,-0.7444,-0.7449,-0.7461,-0.7468,-0.7478,-0.7473,-0.7458,-0.7501,-0.748,-0.7501,-0.7501,-0.7512,-0.7511,-0.7575,-0.7516,-0.7515,-0.7515,-0.7515,0,-0.7402,-0.7424,-0.7416,-0.7431,-0.7455,-0.7447,-0.7472,-0.7472,-0.7477,-0.7492,-0.7479,-0.7493,-0.7486,-0.7499,-0.7496,-0.7519,-0.7522,-0.7522,-0.7521,-0.7523,-0.7523,-0.7529,-0.7526,-0.7517,-0.7517,-0.7516,-0.7516,0,-0.7453,-0.7449,-0.7474,-0.7476,-0.7477,-0.7495,-0.7497,-0.7511,-0.7508,-0.7527,-0.7531,-0.7528,-0.7544,-0.7539,-0.7556,-0.7554,-0.7583,-0.7578,-0.7581,-0.758,-0.7602,-0.76,-0.7671,-0.768,-0.7615,-0.7615,-0.7616,0,-0.7486,-0.7503,-0.7507,-0.7515,-0.7518,-0.7533,-0.7541,-0.7533,-0.7542,-0.755,-0.7563,-0.7576,-0.7587,-0.7612,-0.7612,-0.7624,-0.762,-0.7644,-0.7622,-0.7624,-0.7621,-0.762,-0.7622,-0.7649,-0.765,-0.765,-0.7651,0,-0.7545,-0.7542,-0.7554,-0.7565,-0.7574,-0.7583,-0.759,-0.7598,-0.759,-0.7601,-0.7616,-0.7624,-0.7641,-0.7655,-0.7666,-0.7669,-0.7659,-0.7657,-0.7663,-0.7666,-0.7667,-0.7667,-0.7594,-0.7656,-0.7656,-0.7655,-0.7655,-0.7655,-0.7589,-0.7603,-0.7607,-0.7621,-0.7625,-0.7632,-0.7645,-0.7644,-0.7656,-0.7669,-0.7663,-0.768,-0.7686,-0.77,-0.7704,-0.7717,-0.7708,-0.7716,-0.7718,-0.7721,-0.7723,-0.7664,-0.7719,-0.7719,-0.7719,-0.7719,-0.7719,0,-0.7647,-0.7649,-0.7661,-0.7671,-0.7682,-0.767,-0.7678,-0.7687,-0.7703,-0.7708,-0.7719,-0.7736,-0.7749,-0.7749,-0.7761,-0.7772,-0.7768,-0.7776,-0.7775,-0.7776,-0.7731,-0.7725,-0.7779,-0.7779,-0.7779,-0.7779,-0.7779,-0.7779,-0.7679,-0.7702,-0.7699,-0.7724,-0.7726,-0.7742,-0.7747,-0.7753,-0.7757,-0.7777,-0.7788,-0.7787,-0.7791,-0.7803,-0.7815,-0.7814,-0.782,-0.783,-0.7828,-0.7785,-0.7779,-0.7774,-0.7768,-0.7831,-0.7831,-0.7872,-0.7872,-0.7873]}]]